World > North America > United States > New York

Hourly Panama, NY Regional Weather

Feedback E-mail the Weather

Latest News

Panama, NY Weather Maps

°F °C°F °C
Panama Weather Map
UTC Time: 5/28/2022, 22:22
Your Time:

Panama, NY Regional Weather

Expires:202205282300;;718961
ASUS41 KALY 282210
RWRALY

NEW YORK STATE HOURLY WEATHER ROUNDUP
NATIONAL WEATHER SERVICE ALBANY NY
600 PM EDT SAT MAY 28 2022

NOTE: "FAIR" INDICATES FEW OR NO CLOUDS BELOW 12,000 FEET WITH NO
SIGNIFICANT WEATHER AND/OR NO OBSTRUCTIONS TO VISIBILITY.


NYZ001>004-010>016-019>021-085-282300-
WEST

  
CITY           SKY/WX    TMP DP  RH WIND       PRES   REMARKS
NIAGARA FALLS  MOSUNNY   69  52  54 VRB6      29.87S                  
BUFFALO        PTSUNNY   63  55  75 SW12      29.89R                  
DUNKIRK        MOSUNNY   64  52  64 W12       29.92R                  
JAMESTOWN      PTSUNNY   64  51  62 W14       29.93R                  
WELLSVILLE     CLOUDY    63  54  72 NW10      29.91S                  
ROCHESTER      MOSUNNY   68  51  54 NW10      29.86R                  
PENN YAN       MOSUNNY   66  53  63 NW7       29.87R                  
$$

             KEY
       WCI = WIND CHILL INDEX
       VSB = VISIBILITY
       HX  = HEAT INDEX
$$
  

SKY/WX - Weather  TMP - Temperature  DP - Dew Point  RH - Humidity
WIND - Wind Direction/Speed PRES - Barometric Pressure VSB - Visibility
WCI - Wind Chill Index E13G22 Wind - East Wind 13 mph/Gusts of 22 mph

Trending Headlines

Panama Radar Loop



Panama Quick Facts


National Two Day Weather Forecast


E-mail the Panama Weather Forecast

Voice your opinion or tell us about page issues...